Change the Weather History Date:

Thursday, January 24, 2013

  Actual Average Record
Temperature  
Mean Temperature 46 °F -  
Max Temperature 51 °F 55 °F 59 °F (2001)
Min Temperature 41 °F 38 °F 30 °F (2000)
Degree Days  
Heating Degree Days 19    
Moisture  
Dew Point 39 °F    
Average Humidity 81    
Maximum Humidity 93    
Minimum Humidity 62    
Precipitation  
Precipitation 0.00 in 0.13 in - ()
Sea Level Pressure  
Sea Level Pressure 29.43 in    
Wind  
Wind Speed 4 mph ()    
Max Wind Speed 8 mph    
Max Gust Speed -    
Visibility 5.8 miles    
Events Rain    
Averages and records for this station are not official NWS values.
T = Trace of Precipitation, MM = Missing Value Source: Averaged Metar Reports

Daily Weather History Graph

Daily Weather History Graph

Search for Another Location

Airport or City:

Trip Planner

Search our weather history database for the weather conditions in past years. The results will help you decide how hot, cold, wet, or windy it might be!

Date:

Astronomy

Jan. 24, 2013 Rise Set
Actual Time 7:29 AM CET 5:14 PM CET
Civil Twilight 6:59 AM CET 5:44 PM CET
Nautical Twilight 6:25 AM CET 6:18 PM CET
Astronomical Twilight 5:52 AM CET 6:51 PM CET
Moon 3:01 PM CET (1/24) 5:14 AM CET (1/24)
Length of Visible Light 10h 45m
Length of Day
9h 45m
Waxing Gibbous, 93% of the Moon is Illuminated
Jan 24
Waxing Gibbous
Jan 27
Full
Feb 3
Last Quarter
Feb 10
New
Feb 17
First Quarter

Hourly Weather History & Observations

Time (CET) Temp. Windchill Dew Point Humidity Pressure Visibility Wind Dir Wind Speed Gust Speed Precip Events Conditions
12:15 AM 44.6 °F 40.7 °F 41.0 °F 87% 29.53 in 5.0 mi ENE 6.9 mph - N/A Rain Light Rain Showers
12:45 AM 44.6 °F 40.7 °F 41.0 °F 87% 29.50 in 6.2 mi NE 6.9 mph - N/A   Scattered Clouds
1:15 AM 44.6 °F 43.1 °F 41.0 °F 87% 29.50 in 6.2 mi SW 3.5 mph - N/A   Scattered Clouds
1:45 AM 42.8 °F - 41.0 °F 93% 29.47 in 6.2 mi North 1.2 mph - N/A   Scattered Clouds
2:15 AM 42.8 °F - 41.0 °F 93% 29.47 in 6.2 mi North 2.3 mph - N/A   Scattered Clouds
2:45 AM 42.8 °F 41.1 °F 39.2 °F 87% 29.47 in 6.2 mi WNW 3.5 mph - N/A   Light Drizzle
3:15 AM 42.8 °F - 41.0 °F 93% 29.47 in 5.0 mi NW 2.3 mph - N/A   Light Drizzle
3:45 AM 42.8 °F - 41.0 °F 93% 29.44 in 5.0 mi West 2.3 mph - N/A   Light Drizzle
4:15 AM 42.8 °F 41.1 °F 41.0 °F 93% 29.44 in 5.0 mi NE 3.5 mph - N/A   Light Drizzle
4:45 AM 42.8 °F 40.1 °F 41.0 °F 93% 29.44 in 5.0 mi NNE 4.6 mph - N/A   Light Drizzle
5:15 AM 42.8 °F - 39.2 °F 87% 29.44 in 5.0 mi Calm Calm - N/A   Scattered Clouds
5:45 AM 41.0 °F - 39.2 °F 93% 29.42 in 6.2 mi North 1.2 mph - N/A   Scattered Clouds
6:15 AM 41.0 °F - 39.2 °F 93% 29.42 in 6.2 mi North 2.3 mph - N/A   Scattered Clouds
6:45 AM 41.0 °F 39.0 °F 39.2 °F 93% 29.42 in 6.2 mi NNE 3.5 mph - N/A   Scattered Clouds
7:15 AM 41.0 °F 39.0 °F 37.4 °F 87% 29.42 in 6.2 mi NNE 3.5 mph - N/A   Scattered Clouds
7:45 AM 41.0 °F - 37.4 °F 87% 29.42 in 6.2 mi North 2.3 mph - N/A   Scattered Clouds
8:15 AM 41.0 °F - 37.4 °F 87% 29.42 in 6.2 mi NNW 2.3 mph - N/A   Scattered Clouds
8:45 AM 41.0 °F - 39.2 °F 93% 29.42 in 6.2 mi NNE 2.3 mph - N/A   Scattered Clouds
9:15 AM 42.8 °F 40.1 °F 39.2 °F 87% 29.42 in 4.3 mi NE 4.6 mph - N/A   Scattered Clouds
9:45 AM 44.6 °F 41.4 °F 41.0 °F 87% 29.42 in 4.3 mi NNE 5.8 mph - N/A   Scattered Clouds
10:15 AM 44.6 °F 41.4 °F 41.0 °F 87% 29.42 in 4.3 mi North 5.8 mph - N/A   Scattered Clouds
10:45 AM 46.4 °F 42.9 °F 42.8 °F 87% 29.42 in 4.3 mi NNE 6.9 mph - N/A   Scattered Clouds
11:15 AM 46.4 °F 43.5 °F 41.0 °F 81% 29.42 in 5.6 mi North 5.8 mph - N/A   Mostly Cloudy
11:45 AM 46.4 °F 43.5 °F 41.0 °F 81% 29.42 in 5.0 mi North 5.8 mph - N/A   Mostly Cloudy
12:15 PM 48.2 °F - 41.0 °F 76% 29.42 in 5.0 mi NNW 5.8 mph - N/A   Mostly Cloudy
12:45 PM 50.0 °F - 39.2 °F 66% 29.39 in 6.2 mi NNW 4.6 mph - N/A   Partly Cloudy
1:15 PM 50.0 °F - 41.0 °F 71% 29.39 in 6.2 mi NNW 4.6 mph - N/A   Partly Cloudy
1:45 PM 50.0 °F - 41.0 °F 71% 29.39 in 6.2 mi NNW 4.6 mph - N/A   Partly Cloudy
2:15 PM 51.8 °F - 41.0 °F 67% 29.39 in 6.2 mi North 5.8 mph - N/A   Scattered Clouds
2:45 PM 50.0 °F - 39.2 °F 66% 29.39 in 6.2 mi North 8.1 mph - N/A   Scattered Clouds
3:15 PM 50.0 °F - 39.2 °F 66% 29.39 in 6.2 mi North 5.8 mph - N/A   Scattered Clouds
3:45 PM 50.0 °F - 37.4 °F 62% 29.39 in 6.2 mi North 3.5 mph - N/A   Partly Cloudy
4:15 PM 48.2 °F - 37.4 °F 66% 29.39 in 6.2 mi North 3.5 mph - N/A   Partly Cloudy
4:45 PM 48.2 °F - 37.4 °F 66% 29.39 in 6.2 mi NNW 4.6 mph - N/A   Partly Cloudy
5:15 PM 46.4 °F - 37.4 °F 71% 29.39 in - North 2.3 mph - N/A   Clear
5:45 PM 46.4 °F - 37.4 °F 71% 29.39 in - Calm Calm - N/A   Clear
6:15 PM 44.6 °F - 37.4 °F 76% 29.39 in - WSW 1.2 mph - N/A   Clear
6:45 PM 44.6 °F - 37.4 °F 76% 29.42 in 6.2 mi NNW 2.3 mph - N/A   Scattered Clouds
7:15 PM 44.6 °F 41.4 °F 37.4 °F 76% 29.42 in 6.2 mi NW 5.8 mph - N/A   Scattered Clouds
7:45 PM 44.6 °F 41.4 °F 37.4 °F 76% 29.44 in 6.2 mi North 5.8 mph - N/A   Partly Cloudy
8:15 PM 44.6 °F 40.7 °F 37.4 °F 76% 29.44 in 6.2 mi North 6.9 mph - N/A   Partly Cloudy
8:45 PM 44.6 °F 42.2 °F 35.6 °F 71% 29.44 in 6.2 mi NNE 4.6 mph - N/A   Partly Cloudy
9:15 PM 42.8 °F 39.3 °F 37.4 °F 81% 29.44 in 6.2 mi NNE 5.8 mph - N/A   Partly Cloudy
9:45 PM 42.8 °F 41.1 °F 37.4 °F 81% 29.44 in 6.2 mi NNE 3.5 mph - N/A   Scattered Clouds
10:15 PM 42.8 °F 40.1 °F 37.4 °F 81% 29.44 in 6.2 mi NNE 4.6 mph - N/A   Scattered Clouds
10:45 PM 42.8 °F 41.1 °F 37.4 °F 81% 29.44 in 6.2 mi NNE 3.5 mph - N/A   Scattered Clouds
11:15 PM 42.8 °F 40.1 °F 37.4 °F 81% 29.44 in 6.2 mi North 4.6 mph - N/A   Scattered Clouds
11:45 PM 41.0 °F - 35.6 °F 81% 29.44 in 6.2 mi NNE 1.2 mph - N/A   Scattered Clouds